Stations météo

Publicité
Montauban, France (7540): Température de l'air & dewpoint: 19.03.2019 13:00:00 - 25.03.2019 13:00:00 (CET)Montauban, France (7540): Température de l'air 5cm: 19.03.2019 13:00:00 - 25.03.2019 13:00:00 (CET)Montauban, France (7540): Température de l'air -20cm & Température de l'air -100cm: 19.03.2019 13:00:00 - 25.03.2019 13:00:00 (CET)Montauban, France (7540): Vitesse du vent & gusts: 19.03.2019 13:00:00 - 25.03.2019 13:00:00 (CET)Montauban, France (7540): Direction du vent: 19.03.2019 13:00:00 - 25.03.2019 13:00:00 (CET)Montauban, France (7540): reduced air pressure: 19.03.2019 13:00:00 - 25.03.2019 13:00:00 (CET)Montauban, France (7540): visibility: 19.03.2019 13:00:00 - 25.03.2019 13:00:00 (CET)Montauban, France (7540): Ensoleillement: 19.03.2019 13:00:00 - 25.03.2019 13:00:00 (CET)Montauban, France (7540): Quantités de précipitations: 19.03.2019 13:00:00 - 25.03.2019 13:00:00 (CET)
Date & Time tt [°C] td [°C] tt 5cm [°C] tt -20cm [°C] tt -100cm [°C] ff [km/h] ff [knt] fx [km/h] fx [knt] dd ppp [hPa] vv [km] sd [min] rr [mm]
25.03.2019 13:00:00 15,0 3,5 15,4 11,5 11,3 11 6 24 13 NNW 1025,3 11 40 0,0
25.03.2019 12:00:00 12,5 4,7 15,4 11,5 11,4 8 5 22 12 NW 1025,9 9 56 0,0
25.03.2019 11:00:00 11,0 4,0 13,0 11,5 11,3 9 5 22 12 NNW 1026,5 8 58 0,0
25.03.2019 10:00:00 8,8 3,6 10,4 11,6 11,3 13 7 22 12 NW 1026,5 7 60 0,0
25.03.2019 09:00:00 6,9 3,3 7,0 11,7 11,3 14 7 21 11 NW 1026,1 6 60 0,0
25.03.2019 08:00:00 5,5 2,8 3,4 11,9 11,3 13 7 19 10 WNW 1025,8 7 50 0,0
25.03.2019 07:00:00 4,7 2,4 2,9 12,0 11,3 9 5 14 8 W 1025,5 7 0 0,0
25.03.2019 06:00:00 5,6 2,9 3,3 12,2 11,3 8 5 12 7 WNW 1025,2 10 0 0,0
25.03.2019 05:00:00 6,3 2,9 4,4 12,2 11,3 9 5 16 8 WNW 1025,2 12 0 0,0
25.03.2019 04:00:00 7,0 2,9 4,3 12,4 11,3 6 4 10 6 W 1024,9 14 0 0,0
25.03.2019 03:00:00 7,8 3,1 1,8 12,5 11,3 8 4 11 6 WNW 1025,0 17 0 0,0
25.03.2019 02:00:00 9,1 3,3 3,2 12,6 11,3 6 3 9 5 WNW 1025,0 18 0 0,0
25.03.2019 01:00:00 8,9 3,1 3,2 12,7 11,3 0 0 9 5 N 1024,9 20 0 0,0
25.03.2019 00:00:00 10,7 2,3 5,2 12,8 11,3 3 2 8 4 E 1024,8 20 0 0,0
24.03.2019 23:00:00 11,8 2,5 6,5 12,8 11,3 6 3 13 7 E 1024,8 20 0 0,0
24.03.2019 22:00:00 14,2 1,1 9,9 12,8 11,3 4 2 13 7 N 1024,8 20 0 0,0
24.03.2019 21:00:00 15,6 1,7 12,5 12,8 11,3 8 4 18 10 NNW 1024,1 20 0 0,0
24.03.2019 20:00:00 16,8 1,2 13,9 12,7 11,3 11 6 21 12 NW 1023,8 20 0 0,0
24.03.2019 19:00:00 18,9 0,9 17,1 12,5 11,3 14 7 27 15 NW 1023,2 20 49 0,0
24.03.2019 18:00:00 20,9 -1,0 21,4 12,3 11,2 18 10 30 16 NW 1022,6 20 60 0,0
24.03.2019 17:00:00 21,9 0,4 24,3 12,0 11,3 18 10 29 15 NW 1022,6 20 60 0,0
24.03.2019 16:00:00 22,4 0,8 25,4 11,8 11,3 12 7 30 16 NNW 1022,9 20 60 0,0
24.03.2019 15:00:00 22,2 -0,5 25,7 11,5 11,2 8 4 24 13 NNW 1023,2 20 60 0,0
24.03.2019 14:00:00 20,8 5,2 24,6 11,3 11,2 6 4 20 11 WNW 1024,1 20 60 0,0
24.03.2019 13:00:00 19,1 6,9 23,6 11,2 11,2 6 3 16 9 NW 1025,1 20 60 0,0
24.03.2019 12:00:00 16,6 5,5 21,2 11,1 11,2 7 4 14 7 NW 1025,7 20 60 0,0
24.03.2019 11:00:00 14,3 5,1 18,9 11,2 11,2 4 2 10 5 W 1025,9 20 60 0,0
24.03.2019 10:00:00 12,2 5,6 14,9 11,3 11,2 3 2 8 4 WNW 1026,0 20 60 0,0
24.03.2019 09:00:00 10,0 4,8 12,0 11,4 11,3 2 1 5 3 SE 1026,0 20 60 0,0
24.03.2019 08:00:00 5,4 3,2 0,3 11,5 11,2 0 0 3 1 N 1026,1 20 48 0,0
24.03.2019 07:00:00 2,4 0,8 0,1 11,7 11,2 0 0 3 1 N 1025,8 20 0 0,0
24.03.2019 06:00:00 3,2 1,4 0,1 11,8 11,2 2 1 3 2 S 1025,4 20 0 0,0
24.03.2019 05:00:00 3,5 1,9 0,3 11,9 11,2 3 1 6 3 SW 1024,9 20 0 0,0
24.03.2019 04:00:00 4,7 2,1 0,8 12,0 11,2 2 1 4 2 E 1024,8 20 0 0,0
24.03.2019 03:00:00 5,5 2,1 2,2 12,2 11,2 2 1 4 2 E 1024,9 20 0 0,0
24.03.2019 02:00:00 5,6 2,6 2,0 12,3 11,2 3 1 4 2 WSW 1024,8 20 0 0,0
24.03.2019 01:00:00 6,5 2,9 2,7 12,4 11,2 0 0 3 2 N 1024,9 20 0 0,0
24.03.2019 00:00:00 8,3 3,7 4,0 12,4 11,2 3 1 6 3 SSW 1024,8 20 0 0,0
23.03.2019 23:00:00 8,9 4,3 5,2 12,5 11,2 3 2 5 3 S 1024,9 20 0 0,0
23.03.2019 22:00:00 10,6 4,7 6,2 12,5 11,2 0 0 4 2 N 1024,9 20 0 0,0
23.03.2019 21:00:00 12,2 4,9 6,0 12,4 11,2 3 2 7 4 WNW 1024,8 18 0 0,0
23.03.2019 20:00:00 15,7 4,4 8,0 12,3 11,2 3 2 10 5 NW 1024,3 20 0 0,0
23.03.2019 19:00:00 20,2 2,5 16,1 12,1 11,2 5 3 12 6 W 1024,0 18 48 0,0
23.03.2019 18:00:00 22,2 2,3 23,5 11,8 11,1 7 4 14 8 WNW 1023,7 20 60 0,0
23.03.2019 17:00:00 22,7 0,5 25,5 11,6 11,1 5 3 17 9 NNW 1024,1 20 60 0,0
23.03.2019 16:00:00 22,2 1,2 24,8 11,3 11,1 6 3 16 8 WNW 1024,5 20 60 0,0
23.03.2019 15:00:00 22,6 3,2 26,6 11,1 11,2 3 2 13 7 SSE 1025,0 20 60 0,0
23.03.2019 14:00:00 21,3 3,9 26,3 10,8 11,1 3 2 10 6 WSW 1026,0 20 60 0,0
23.03.2019 13:00:00 18,6 4,0 20,4 10,7 11,1 4 2 9 5 WNW 1027,0 20 35 0,0
23.03.2019 12:00:00 17,1 2,7 22,6 10,7 11,1 5 3 9 5 WNW 1027,7 20 60 0,0
23.03.2019 11:00:00 15,1 3,6 18,3 10,7 11,1 0 0 8 4 N 1028,3 20 60 0,0
23.03.2019 10:00:00 12,9 4,8 15,7 10,8 11,1 3 2 12 7 S 1028,5 20 60 0,0
23.03.2019 09:00:00 9,2 4,2 9,2 10,9 11,1 0 0 2 1 N 1028,6 19 55 0,0
23.03.2019 08:00:00 4,0 2,0 -0,2 11,0 11,1 0 0 3 2 N 1028,5 18 31 0,0
23.03.2019 07:00:00 1,7 0,2 -0,5 11,2 11,1 0 0 5 3 N 1028,5 16 0 0,0
23.03.2019 06:00:00 2,5 1,0 -0,4 11,3 11,1 0 0 4 2 N 1028,3 19 0 0,0
23.03.2019 05:00:00 2,6 0,8 -0,3 11,5 11,2 0 0 4 2 N 1028,3 18 0 0,0
23.03.2019 04:00:00 3,6 1,5 0,6 11,6 11,1 0 0 3 1 N 1028,0 18 0 0,0
23.03.2019 03:00:00 4,8 2,3 1,0 11,7 11,1 0 0 3 2 N 1028,2 20 0 0,0
23.03.2019 02:00:00 6,2 2,8 2,4 11,8 11,1 0 0 4 2 N 1028,3 20 0 0,0
23.03.2019 01:00:00 5,3 1,9 2,3 11,8 11,1 2 1 3 2 SSE 1028,0 19 0 0,0
23.03.2019 00:00:00 7,6 3,3 4,2 11,9 11,1 0 0 5 3 N 1028,2 18 0 0,0
22.03.2019 23:00:00 9,1 3,7 5,1 11,9 11,1 3 2 4 2 S 1028,1 20 0 0,0
22.03.2019 22:00:00 9,9 4,1 5,8 11,9 11,1 0 0 3 2 N 1027,8 19 0 0,0
22.03.2019 21:00:00 11,5 4,5 6,6 11,9 11,1 0 0 8 4 N 1027,2 19 0 0,0
22.03.2019 20:00:00 14,2 3,9 8,6 11,7 11,1 2 1 6 4 S 1026,7 20 0 0,0
22.03.2019 19:00:00 18,5 1,5 15,4 11,5 11,1 4 2 6 4 WSW 1026,3 20 47 0,0
22.03.2019 18:00:00 20,4 1,3 23,7 11,3 11,1 0 0 10 5 N 1025,8 20 60 0,0
22.03.2019 17:00:00 20,5 0,8 24,9 11,0 11,1 5 3 10 5 ESE 1025,9 20 60 0,0
22.03.2019 16:00:00 20,9 0,1 26,0 10,7 11,1 3 2 13 7 ESE 1026,5 20 60 0,0
22.03.2019 15:00:00 19,8 -0,8 24,7 10,4 11,1 5 3 11 6 NE 1027,2 20 60 0,0
22.03.2019 14:00:00 18,7 -1,2 24,4 10,2 11,1 5 3 9 5 ENE 1027,8 20 60 0,0
22.03.2019 13:00:00 17,9 3,0 21,5 10,1 11,1 2 1 10 6 WSW 1028,8 20 60 -
22.03.2019 12:00:00 15,4 1,9 19,7 10,0 11,1 3 1 10 5 NW 1029,4 19 60 0,0
22.03.2019 11:00:00 13,2 1,8 17,8 10,1 11,1 0 0 7 4 N 1030,0 20 60 0,0
22.03.2019 10:00:00 10,5 2,1 12,7 10,1 11,1 0 0 6 3 N 1030,2 20 60 0,0
22.03.2019 09:00:00 7,0 0,9 8,3 10,3 11,1 2 1 4 2 E 1030,2 20 60 0,0
22.03.2019 08:00:00 2,2 -0,1 -2,2 10,5 11,1 0 0 4 2 N 1030,2 19 44 0,0
22.03.2019 07:00:00 -0,2 -1,8 -2,3 10,6 11,1 2 1 4 2 E 1029,8 18 0 0,0
22.03.2019 06:00:00 0,4 -1,7 -2,0 10,7 11,1 0 0 3 2 N 1029,4 20 0 0,0
22.03.2019 05:00:00 1,1 -1,1 -1,6 10,8 11,1 0 0 3 2 N 1029,4 20 0 0,0
22.03.2019 04:00:00 1,5 -0,7 -1,4 11,0 11,1 0 0 3 2 N 1029,5 20 0 0,0
22.03.2019 03:00:00 1,4 -0,8 -1,2 11,1 11,1 0 0 4 2 N 1029,5 20 0 0,0
22.03.2019 02:00:00 1,9 -0,7 -0,6 11,2 11,1 0 0 8 4 N 1029,4 20 0 0,0
22.03.2019 01:00:00 2,7 -0,6 -0,2 11,3 11,1 4 2 6 3 E 1029,3 20 0 0,0
22.03.2019 00:00:00 3,1 -0,5 0,3 11,4 11,1 0 0 5 3 N 1029,5 20 0 0,0
21.03.2019 23:00:00 4,5 -0,5 0,9 11,4 11,1 2 1 5 3 E 1029,4 19 0 0,0
21.03.2019 22:00:00 6,3 0,2 2,2 11,5 11,1 2 1 4 2 SSE 1029,1 17 0 0,0
21.03.2019 21:00:00 8,1 0,6 3,8 11,4 11,1 2 1 5 3 SSW 1028,7 19 0 0,0
21.03.2019 20:00:00 9,9 0,2 4,3 11,3 11,1 0 0 6 3 N 1028,4 19 0 0,0
21.03.2019 19:00:00 13,9 -2,1 10,5 11,1 11,1 2 1 9 5 SSE 1027,9 20 46 0,0
21.03.2019 18:00:00 15,7 -2,8 20,0 10,9 11,1 3 2 13 7 SE 1027,8 20 60 0,0
21.03.2019 17:00:00 16,1 -2,4 21,0 10,6 11,1 3 2 18 10 ESE 1027,8 20 60 0,0
21.03.2019 16:00:00 16,6 -0,6 21,5 10,4 11,1 6 4 17 9 NW 1028,0 20 60 0,0
21.03.2019 15:00:00 15,8 -1,8 21,5 10,1 11,1 7 4 16 9 N 1028,4 20 60 0,0
21.03.2019 14:00:00 14,8 -1,8 20,5 9,9 11,1 5 3 12 6 W 1029,0 19 60 0,0
21.03.2019 13:00:00 13,8 0,4 19,3 9,8 11,1 5 3 15 8 W 1029,9 20 60 0,0
21.03.2019 12:00:00 12,8 -0,5 17,8 9,8 11,1 4 2 11 6 W 1030,2 20 60 0,0
21.03.2019 11:00:00 11,2 0,9 16,3 9,8 11,1 3 2 14 7 SSE 1030,5 20 60 0,0
21.03.2019 10:00:00 8,4 -0,1 11,0 9,9 11,1 4 2 14 8 S 1030,7 20 60 0,0
21.03.2019 09:00:00 5,8 -0,1 6,0 10,0 11,1 3 1 8 4 WSW 1031,1 20 60 0,0
21.03.2019 08:00:00 1,8 -0,8 -2,5 10,2 11,1 0 0 5 3 N 1031,2 19 42 0,0
21.03.2019 07:00:00 -0,3 -2,0 -3,8 10,3 11,1 2 1 3 2 ESE 1030,8 20 0 0,0
21.03.2019 06:00:00 -0,9 -2,8 -3,4 10,5 11,1 0 0 3 2 N 1030,4 20 0 0,0
21.03.2019 05:00:00 0,2 -2,0 -3,0 10,6 11,1 0 0 2 1 N 1030,1 20 0 0,0
21.03.2019 04:00:00 1,0 -1,6 -2,0 10,7 11,1 0 0 8 4 N 1030,0 20 0 0,0
21.03.2019 03:00:00 2,2 -0,7 -1,5 10,9 11,1 0 0 5 3 N 1030,4 20 0 0,0
21.03.2019 02:00:00 1,5 -1,7 -1,0 11,0 11,1 4 2 5 3 S 1030,7 11 0 0,0
21.03.2019 01:00:00 2,5 -1,3 -0,8 11,1 11,1 0 0 8 4 N 1030,8 20 0 0,0
21.03.2019 00:00:00 4,1 -0,3 0,4 11,1 11,1 3 1 5 3 S 1030,9 19 0 0,0
20.03.2019 23:00:00 6,0 -0,3 1,6 11,2 11,2 0 0 8 5 N 1031,2 20 0 0,0
20.03.2019 22:00:00 7,9 -1,1 2,5 11,2 11,2 4 2 11 6 W 1030,9 20 0 0,0
20.03.2019 21:00:00 9,7 -1,4 5,9 11,2 11,2 9 5 13 7 W 1030,5 20 0 0,0
20.03.2019 20:00:00 12,5 -2,6 8,9 11,0 11,1 6 4 12 7 NNW 1029,9 20 0 0,0
20.03.2019 19:00:00 13,9 -2,5 10,8 10,9 11,2 7 4 17 9 NW 1029,6 20 45 0,0
20.03.2019 18:00:00 15,8 -5,3 18,4 10,7 11,1 9 5 19 10 NNW 1029,1 20 60 0,0
20.03.2019 17:00:00 16,1 -2,0 19,0 10,4 11,1 8 4 26 14 W 1029,1 20 60 0,0
20.03.2019 16:00:00 15,5 -2,0 18,9 10,2 11,1 16 9 25 13 WNW 1029,3 20 60 0,0
20.03.2019 15:00:00 15,0 -1,2 19,1 10,0 11,2 9 5 23 13 NW 1030,1 20 60 0,0
20.03.2019 14:00:00 13,8 -1,4 17,6 9,8 11,1 10 5 24 13 W 1030,9 20 60 0,0
20.03.2019 13:00:00 12,6 0,7 16,7 9,7 11,1 11 6 24 13 W 1031,7 20 60 0,0
20.03.2019 12:00:00 11,4 0,5 16,1 9,7 11,1 9 5 17 9 WNW 1032,0 20 60 0,0
20.03.2019 11:00:00 10,1 1,7 14,0 9,7 11,1 5 3 11 6 NW 1032,5 20 60 0,0
20.03.2019 10:00:00 8,0 0,7 10,1 9,9 11,1 2 1 10 5 N 1032,5 20 60 0,0
20.03.2019 09:00:00 4,8 0,6 7,2 10,0 11,2 6 3 11 6 NW 1032,4 20 60 0,0
20.03.2019 08:00:00 2,1 0,5 -3,8 10,1 11,1 3 2 6 4 N 1032,2 20 41 0,0
20.03.2019 07:00:00 -1,4 -2,4 -3,7 10,3 11,1 0 0 5 3 N 1031,8 19 0 0,0
20.03.2019 06:00:00 -0,8 -1,9 -3,2 10,4 11,1 0 0 4 2 N 1031,3 20 0 0,0
20.03.2019 05:00:00 -0,3 -1,4 -3,0 10,6 11,1 0 0 5 3 N 1031,4 20 0 0,0
20.03.2019 04:00:00 -0,5 -1,9 -2,7 10,7 11,1 3 2 6 3 SSE 1031,2 19 0 0,0
20.03.2019 03:00:00 1,2 -0,1 -2,1 10,8 11,2 0 0 5 3 N 1031,2 20 0 0,0
20.03.2019 02:00:00 1,6 -0,3 -1,3 10,9 11,1 0 0 5 3 N 1031,4 20 0 0,0
20.03.2019 01:00:00 2,5 0,4 -0,7 11,0 11,1 0 0 5 3 N 1031,2 20 0 0,0
20.03.2019 00:00:00 5,4 1,7 0,9 11,1 11,1 4 2 8 5 WNW 1031,0 20 0 0,0
19.03.2019 23:00:00 5,7 2,3 1,4 11,1 11,1 4 2 10 5 W 1030,6 18 0 0,0
19.03.2019 22:00:00 7,1 3,0 4,3 11,2 11,1 6 3 16 9 WNW 1029,9 20 0 0,0
19.03.2019 21:00:00 7,9 3,2 6,2 11,2 11,1 10 5 18 10 WNW 1029,3 20 0 0,0
19.03.2019 20:00:00 9,3 3,5 8,0 11,1 11,1 11 6 20 11 W 1028,9 20 0 0,0
19.03.2019 19:00:00 10,9 3,0 9,8 11,1 11,1 13 7 23 13 W 1028,4 20 38 0,0
19.03.2019 18:00:00 11,3 4,0 10,9 11,0 11,1 16 9 29 16 WNW 1027,9 20 23 0,0
19.03.2019 17:00:00 11,4 3,4 11,0 10,9 11,1 16 9 30 16 NW 1027,5 20 0 0,0
19.03.2019 16:00:00 11,3 2,8 12,0 10,7 11,1 21 12 36 19 NNW 1027,4 20 19 0,0
19.03.2019 15:00:00 12,1 2,8 13,6 10,6 11,1 16 8 30 16 NNW 1027,0 20 22 0,0
19.03.2019 14:00:00 11,5 2,8 10,7 10,5 11,1 16 9 29 16 NW 1027,3 20 18 0,0
19.03.2019 13:00:00 12,0 4,0 12,2 10,4 11,1 12 7 26 14 NW 1027,7 20 22 0,0

tt = Température de l'air
td = dewpoint
tt 5cm = Température de l'air 5cm
tt -20cm = Température de l'air -20cm
tt -100cm = Température de l'air -100cm
ff = Vitesse du vent
fx = gusts
dd = Direction du vent
ppp = reduced air pressure
vv = visibility
sd = Ensoleillement
rr = Quantités de précipitations

stations d'obs. à proximité